Location: Goodfare
(55.2420°N, 119.7689°W)
Time: 15:31:38
(UTC+00:00)

Envisat - Visible Passes

Search period start: 01 December 2021 00:00
Search period end: 11 December 2021 00:00
Orbit: 764 x 766 km, 98.2° (Epoch: 01 December)

Date Brightness Start Highest point End Pass type
(mag) Time Alt. Az. Time Alt. Az. Time Alt. Az.
01 Dec 4.0 00:22:58 10° S 00:27:56 52° W 00:32:55 10° NNW visible
01 Dec 4.6 12:24:19 10° NNE 12:28:56 33° E 12:33:32 10° SSE visible
01 Dec 3.2 14:03:15 10° N 14:08:09 48° WNW 14:13:01 10° SW visible
02 Dec 5.8 01:27:11 10° SW 01:30:41 19° W 01:34:13 10° NW visible
02 Dec 5.5 11:48:08 10° NE 11:51:40 18° E 11:55:10 10° SE visible
02 Dec 2.9 13:26:15 10° NNE 13:31:23 87° WNW 13:36:28 10° SSW visible
02 Dec 4.2 15:06:08 10° N 15:09:46 20° NW 15:13:24 10° W visible
03 Dec 4.9 00:48:49 10° SSW 00:53:25 34° W 00:58:02 10° NNW visible
03 Dec 3.8 12:49:26 10° NNE 12:54:25 51° E 12:59:22 10° S visible
03 Dec 3.6 14:28:46 10° N 14:33:18 33° WNW 14:37:48 10° WSW visible
04 Dec 3.6 00:11:17 10° S 00:16:19 62° WSW 00:21:24 10° NNW visible
04 Dec 6.2 01:54:35 10° WSW 01:56:24 12° W 01:58:15 10° WNW visible
04 Dec 4.9 12:12:54 10° NNE 12:17:17 28° E 12:21:37 10° SSE visible
04 Dec 3.0 13:51:38 10° N 13:56:38 58° WNW 14:01:37 10° SW visible
05 Dec 5.6 01:15:03 10° SW 01:18:59 22° W 01:22:57 10° NW visible
05 Dec 5.8 11:36:58 10° NE 11:39:56 15° E 11:42:52 10° ESE visible
05 Dec 3.0 13:14:41 10° NNE 13:19:49 79° ESE 13:24:54 10° SSW visible
05 Dec 4.0 14:54:23 10° N 14:58:21 23° NW 15:02:18 10° WSW visible
06 Dec 4.5 00:36:59 10° SSW 00:41:46 40° W 00:46:34 10° NNW visible
06 Dec 4.1 12:37:56 10° NNE 12:42:48 43° E 12:47:37 10° S visible
06 Dec 3.4 14:17:07 10° N 14:21:49 39° WNW 14:26:30 10° SW visible
07 Dec 6.0 01:41:55 10° WSW 01:44:40 14° W 01:47:25 10° NW visible
07 Dec 5.2 12:01:32 10° NE 12:05:36 23° E 12:09:38 10° SE visible
07 Dec 2.9 13:40:02 10° NNE 13:45:07 69° WNW 13:50:10 10° SSW visible
07 Dec 4.4 15:20:11 10° N 15:23:19 17° NW 15:26:28 10° W visible
08 Dec 5.3 01:03:02 10° SSW 01:07:18 27° W 01:11:35 10° NW visible
08 Dec 5.9 11:26:01 10° ENE 11:28:11 13° E 11:30:20 10° ESE visible
08 Dec 3.3 13:03:08 10° NNE 13:08:14 66° ESE 13:13:17 10° S visible
08 Dec 3.9 14:42:40 10° N 14:46:54 27° WNW 14:51:07 10° WSW visible
09 Dec 4.1 00:25:13 10° S 00:30:08 49° W 00:35:05 10° NNW visible
09 Dec 4.5 12:26:28 10° NNE 12:31:09 35° E 12:35:48 10° SSE visible
09 Dec 3.2 14:05:28 10° N 14:10:19 46° WNW 14:15:09 10° SW visible
10 Dec 5.8 01:29:34 10° SW 01:32:55 18° W 01:36:18 10° NW visible
10 Dec 5.4 11:50:14 10° NE 11:53:53 20° E 11:57:32 10° SE visible
10 Dec 2.9 13:28:27 10° NNE 13:33:34 82° WNW 13:38:39 10° SSW visible
10 Dec 4.3 15:08:23 10° N 15:11:55 19° NW 15:15:27 10° W visible
